EN

Hourly Weather Antіshki (Hor'koho)

Today, 23 January, Saturday

Time Temperature Precipitation Wind Pressure Humidity
00:00 -2°C° 0 mm 5 mps 746 mmHg 93%
01:00 -2°C° 0 mm 5 mps 745 mmHg 94%
02:00 -2°C° 0 mm 5 mps 745 mmHg 94%
03:00 -2°C° 0 mm 5 mps 745 mmHg 95%
04:00 -1°C° 0 mm 5 mps 745 mmHg 96%
05:00 0°C° 0 mm 5 mps 745 mmHg 97%
06:00 0°C° 0 mm 5 mps 745 mmHg 97%
07:00 0°C° 0 mm 5 mps 745 mmHg 98%
08:00 0°C° 0 mm 4 mps 745 mmHg 98%
09:00 0°C° 0 mm 4 mps 745 mmHg 98%
10:00 0°C° 0 mm 5 mps 745 mmHg 98%
11:00 0°C° 0 mm 5 mps 745 mmHg 99%
12:00 +1°C° 0 mm 5 mps 745 mmHg 99%
13:00 +1°C° 0 mm 4 mps 745 mmHg 98%
14:00 +1°C° 0 mm 4 mps 744 mmHg 98%
15:00 +1°C° 0 mm 4 mps 744 mmHg 98%
16:00 +1°C° 0 mm 4 mps 744 mmHg 98%
17:00 +1°C° 0 mm 4 mps 744 mmHg 98%
18:00 +1°C° 0 mm 4 mps 744 mmHg 98%
19:00 +1°C° 0 mm 4 mps 744 mmHg 98%
20:00 +1°C° 0 mm 5 mps 744 mmHg 98%
21:00 +1°C° 0 mm 5 mps 744 mmHg 98%
22:00 +1°C° 0 mm 5 mps 744 mmHg 97%
23:00 +1°C° 0 mm 5 mps 744 mmHg 97%

Tomorrow, 24 January, Sunday

Time Temperature Precipitation Wind Pressure Humidity
00:00 +1°C° 0 mm 5 mps 744 mmHg 97%
01:00 +1°C° 0 mm 5 mps 744 mmHg 97%
02:00 +2°C° 0 mm 5 mps 743 mmHg 97%
03:00 +2°C° 0 mm 5 mps 743 mmHg 96%
04:00 +2°C° 0 mm 5 mps 743 mmHg 96%
05:00 +2°C° 0 mm 6 mps 743 mmHg 96%
06:00 +2°C° 0 mm 6 mps 743 mmHg 95%
07:00 +2°C° 0 mm 6 mps 743 mmHg 95%
08:00 +2°C° 0 mm 6 mps 743 mmHg 94%
09:00 +2°C° 0 mm 7 mps 743 mmHg 92%
10:00 +2°C° 0 mm 7 mps 742 mmHg 90%
11:00 +3°C° 0 mm 7 mps 742 mmHg 87%
12:00 +3°C° 0 mm 7 mps 742 mmHg 86%
13:00 +2°C° 0 mm 8 mps 741 mmHg 84%
14:00 +2°C° 0 mm 8 mps 741 mmHg 83%
15:00 +2°C° 0 mm 9 mps 741 mmHg 83%
16:00 +2°C° 0 mm 9 mps 740 mmHg 83%
17:00 +2°C° 0 mm 9 mps 740 mmHg 84%
18:00 +2°C° 0 mm 9 mps 740 mmHg 85%
19:00 +2°C° 0 mm 9 mps 740 mmHg 87%
20:00 +2°C° 0 mm 8 mps 741 mmHg 89%
21:00 +1°C° 0 mm 8 mps 741 mmHg 90%
22:00 +2°C° 0 mm 7 mps 741 mmHg 91%
23:00 +2°C° 0 mm 7 mps 741 mmHg 93%

Day after tomorrow, 25 January, Monday

Time Temperature Precipitation Wind Pressure Humidity
00:00 +2°C° 0 mm 6 mps 741 mmHg 93%
01:00 +2°C° 0 mm 6 mps 741 mmHg 94%
02:00 +2°C° 0 mm 6 mps 741 mmHg 95%
03:00 +2°C° 0 mm 5 mps 741 mmHg 95%
04:00 +2°C° 0 mm 5 mps 741 mmHg 95%
05:00 +2°C° 0 mm 5 mps 740 mmHg 95%
06:00 +3°C° 0 mm 5 mps 741 mmHg 95%
07:00 +3°C° 0 mm 5 mps 741 mmHg 95%
08:00 +3°C° 0 mm 5 mps 741 mmHg 95%
09:00 +3°C° 0 mm 5 mps 741 mmHg 94%
10:00 +3°C° 0 mm 5 mps 741 mmHg 93%
11:00 +5°C° 0 mm 4 mps 741 mmHg 93%
12:00 +5°C° 0 mm 4 mps 741 mmHg 93%
13:00 +5°C° 0 mm 5 mps 741 mmHg 93%
14:00 +5°C° 0 mm 5 mps 740 mmHg 93%
15:00 +4°C° 0.1 mm 6 mps 740 mmHg 92%
16:00 +4°C° 0.1 mm 6 mps 740 mmHg 92%
17:00 +4°C° 0.1 mm 7 mps 739 mmHg 92%
18:00 +4°C° 0.5 mm 7 mps 739 mmHg 92%
19:00 +4°C° 0.5 mm 8 mps 738 mmHg 92%
20:00 +4°C° 0.5 mm 8 mps 738 mmHg 92%
21:00 +3°C° 0.1 mm 9 mps 737 mmHg 89%
22:00 +3°C° 0.1 mm 9 mps 736 mmHg 86%
23:00 +2°C° 0.1 mm 10 mps 736 mmHg 83%

26 January, Tuesday

Time Temperature Precipitation Wind Pressure Humidity
00:00 +2°C° 0.7 mm 10 mps 735 mmHg 85%
01:00 +2°C° 0.7 mm 9 mps 735 mmHg 87%
02:00 +2°C° 0.7 mm 9 mps 734 mmHg 89%
03:00 +2°C° 0.1 mm 9 mps 734 mmHg 88%
04:00 +3°C° 0.1 mm 9 mps 733 mmHg 87%
05:00 +3°C° 0.1 mm 9 mps 733 mmHg 86%
06:00 +2°C° 0.1 mm 9 mps 733 mmHg 83%
07:00 +1°C° 0.1 mm 9 mps 733 mmHg 80%
08:00 0°C° 0.1 mm 10 mps 733 mmHg 77%
09:00 0°C° 0 mm 10 mps 732 mmHg 74%
10:00 0°C° 0 mm 10 mps 732 mmHg 72%
11:00 -1°C° 0 mm 11 mps 732 mmHg 69%
12:00 -1°C° 0 mm 11 mps 732 mmHg 70%
13:00 -2°C° 0 mm 11 mps 731 mmHg 71%
14:00 -2°C° 0 mm 11 mps 731 mmHg 72%
15:00 -3°C° 0.4 mm 11 mps 731 mmHg 80%
16:00 -3°C° 0.4 mm 10 mps 732 mmHg 88%
17:00 -4°C° 0.4 mm 10 mps 732 mmHg 96%
18:00 -4°C° 0.2 mm 10 mps 732 mmHg 94%
19:00 -4°C° 0.2 mm 11 mps 733 mmHg 92%
20:00 -4°C° 0.2 mm 11 mps 733 mmHg 90%
21:00 -4°C° 0.2 mm 11 mps 734 mmHg 91%
22:00 -6°C° 0.2 mm 11 mps 735 mmHg 91%
23:00 -6°C° 0.2 mm 11 mps 735 mmHg 91%

27 January, Wednesday

Time Temperature Precipitation Wind Pressure Humidity
00:00 -6°C° 0.3 mm 11 mps 736 mmHg 91%
01:00 -5°C° 0.3 mm 10 mps 736 mmHg 90%
02:00 -5°C° 0.3 mm 10 mps 737 mmHg 89%
03:00 -5°C° 0.1 mm 10 mps 737 mmHg 90%
04:00 -5°C° 0.1 mm 10 mps 738 mmHg 90%
05:00 -5°C° 0.1 mm 10 mps 738 mmHg 91%
06:00 -5°C° 0.1 mm 9 mps 739 mmHg 90%
07:00 -5°C° 0.1 mm 9 mps 739 mmHg 88%
08:00 -5°C° 0.1 mm 9 mps 740 mmHg 87%
09:00 -5°C° 0 mm 9 mps 740 mmHg 87%
10:00 -4°C° 0 mm 9 mps 741 mmHg 86%
11:00 -4°C° 0 mm 8 mps 741 mmHg 86%
12:00 -4°C° 0 mm 8 mps 741 mmHg 85%
13:00 -4°C° 0 mm 8 mps 742 mmHg 84%
14:00 -3°C° 0 mm 7 mps 742 mmHg 83%
15:00 -3°C° 0 mm 6 mps 742 mmHg 83%
16:00 -3°C° 0 mm 6 mps 742 mmHg 84%
17:00 -4°C° 0 mm 5 mps 743 mmHg 84%
18:00 -4°C° 0 mm 5 mps 743 mmHg 85%
19:00 -3°C° 0 mm 4 mps 743 mmHg 87%
20:00 -3°C° 0 mm 4 mps 744 mmHg 89%
21:00 -4°C° 0 mm 3 mps 744 mmHg 90%
22:00 -4°C° 0 mm 3 mps 744 mmHg 92%
23:00 -4°C° 0 mm 3 mps 744 mmHg 93%

28 January, Thursday

Time Temperature Precipitation Wind Pressure Humidity
00:00 -4°C° 0 mm 3 mps 744 mmHg 93%
01:00 -4°C° 0 mm 3 mps 744 mmHg 93%
02:00 -4°C° 0 mm 3 mps 744 mmHg 92%
03:00 -4°C° 0 mm 2 mps 744 mmHg 93%
04:00 -4°C° 0 mm 2 mps 744 mmHg 93%
05:00 -4°C° 0 mm 2 mps 744 mmHg 93%
06:00 -4°C° 0 mm 2 mps 744 mmHg 93%
07:00 -4°C° 0 mm 2 mps 744 mmHg 93%
08:00 -4°C° 0 mm 2 mps 744 mmHg 92%
09:00 -3°C° 0 mm 2 mps 744 mmHg 90%
10:00 -3°C° 0 mm 2 mps 744 mmHg 88%
11:00 -2°C° 0 mm 2 mps 744 mmHg 86%
12:00 -2°C° 0 mm 3 mps 744 mmHg 85%
13:00 -2°C° 0 mm 3 mps 743 mmHg 84%
14:00 -2°C° 0 mm 3 mps 743 mmHg 83%
15:00 -2°C° 0 mm 3 mps 743 mmHg 83%
16:00 -3°C° 0 mm 2 mps 743 mmHg 84%
17:00 -3°C° 0 mm 2 mps 743 mmHg 84%
18:00 -3°C° 0 mm 2 mps 743 mmHg 84%
19:00 -3°C° 0 mm 2 mps 743 mmHg 84%
20:00 -3°C° 0 mm 2 mps 743 mmHg 84%
Show more

We Need Your Consent

Meteoprog and our Service Providers may store and access personal data such as cookies, device identifiers or other similar technologies on your device and process such data to personalise content and ads, as well as provide social media features and to analyse the traffic.

  • Store and/or access information on your device

    Cookies, device identifiers or other information can be stored or accessed on your device for the purposes indicated above.

  • Personalised ads and content, ad and content measurement, audience insights, and products development

    Ads and content can be personalised based on a profile. More data can be added to better personalise ads and content. Ad and content performance can be measured. Insights about the audience who saw the ads and content can be derived. Such data can be used to develop or improve user’s experience, systems and software.

By clicking ‘I Agree’ you will allow the use of indicated cookies, device identifiers, web beacons or other similar technologies. Your settings can be changed in the browser on your device.

For certain purposes, legitimate interests may be relied on, rather than consent. You can read more about this in our Privacy and Cookie Policy.